Flag for Canada Weather past 2 weeks in Richmond Hill, Ontario, Canada

Now
32 °F

Partly sunny.


Feels Like: 25 °F
Forecast: N/A
Wind: 8 mph from Southeast

Location: Toronto Buttonville

Current Time: Dec 22, 2014 at 4:42:20 PM

Latest Report: Dec 22, 2014 at 3:00 PM


Visibility: 15 mi

Pressure: 30.12 "Hg

Humidity: 75%

Dew point: 25 °F

Location of Richmond HillLocation

Historic Weather in Richmond Hill — Graph

°F

Richmond Hill temperature yesterday

Maximum temperature yesterday: 36 °F (at 1:00 PM)
Minimum temperature yesterday: 27 °F (at 4:00 AM)
Average temperature yesterday: 30 °F

Past Weeks' High & Low Weather Summary

 TemperatureHumidityPressure
High39 °F (Dec 15, 2:00 PM)100% (Dec 9, 8:00 AM)30.74 "Hg (Dec 9, 8:00 AM)
Low16 °F (Dec 20, 8:00 AM)43% (Dec 7, 3:00 PM)29.74 "Hg (Dec 16, 2:00 PM)
Average31 °F83%30.11 "Hg
* Reported Dec 7 3:00 PM — Dec 22 3:00 PM, Richmond Hill, Weather by CustomWeather, © 2014

Note: Actual official high and low records may vary slightly from our data, if they occured in-between our weather recording intervals... More about our weather records

Advertising

Richmond Hill weather history for previous 24 hours

 ConditionsComfort  
Time TempWeatherWind HumidityBarometerVisibility
3:00 PM
Dec 22
32 °FPartly sunny.8 mph75%30.12 "Hg15 mi
2:00 PM32 °FPartly sunny.13 mph75%30.14 "Hg15 mi
1:00 PM32 °FOvercast.12 mph75%30.15 "Hg15 mi
12:00 PM32 °FOvercast.12 mph75%30.18 "Hg15 mi
11:00 AM32 °FOvercast.12 mph75%30.21 "Hg15 mi
10:00 AM32 °FOvercast.10 mph75%30.22 "Hg15 mi
9:00 AM30 °FOvercast.9 mph80%30.23 "Hg15 mi
8:00 AM30 °FOvercast.9 mph75%30.24 "Hg15 mi
3:00 AM30 °FOvercast.5 mph69%30.27 "Hg12 mi
2:00 AM30 °FOvercast.8 mph69%30.27 "Hg12 mi
1:00 AM30 °FOvercast.7 mph75%30.28 "Hg12 mi
12:00 AM30 °FOvercast.3 mph80%30.30 "Hg12 mi
11:00 PM
Dec 21
30 °FOvercast.3 mph75%30.29 "Hg15 mi
10:00 PM30 °FOvercast.2 mph75%30.31 "Hg15 mi
9:00 PM30 °FOvercast.2 mph75%30.32 "Hg15 mi
8:00 PM30 °FOvercast.3 mph75%30.32 "Hg15 mi
7:00 PM32 °FPassing clouds.3 mph69%30.32 "Hg15 mi
6:00 PM32 °FOvercast.7 mph69%30.31 "Hg15 mi
5:00 PM32 °FPassing clouds.5 mph69%30.31 "Hg15 mi
4:00 PM34 °FPartly sunny.5 mph65%30.30 "Hg15 mi
Weather by CustomWeather, © 2014

See weather overviewHow to use our weather pages